CZ-6A DEB, 54595

Orbit data source: Space-Track

CZ-6A DEB, 54595 is space debris in SSO originally from a launch on Fri, 11 Nov 2022 UTC launched from the Taiyaun Space Center, China (TSC). Debris objects in space refer to the collection of defunct objects orbiting the Earth. Examples of debris include non-operational satellites, rocket bodies, and fragments generated from explosions, collisions, or faulty payload assembly.

Loading next visibility...
Identifier
54595, 2022-151MV
Orbit
SSO
Country
Flag of CNCN / PRC
Related business
Manufacturer
SAST
Mission
Spacecraft
Bus & Motor
Unknown
Mass
Unknown
Launch date (UTC)
2022-11-11 (4 years ago)
Launch vehicle
Unknown
Launch site
Taiyaun Space Center, China (TSC)
Object type
Payload
Rocket body
Debris
Shape & HBR
Unknown shape, 0.1 m
Radar Cross Section
Medium (>0.1 m² and <1 m²)

Expand to show TLE details & history
Last TLE update: 8 hours ago

TLE from 8 hours ago
0 CZ-6A DEB
1 54595U 22151MV  26238.49820643  .00000723  00000-0  23478-3 0  9995
2 54595  98.5722 263.7184 0100145 155.8932 204.6991 14.39069706198068
Epoch: 2026-08-26T11:57Z
TLE epoch observation values (Epoch: 2026-08-26T11:57:25.035Z)
Latitude
0.00003°
Longitude
109.61374°
Altitude
829.615 km
Speed
7.404 km/s
True Right ascension
17h 34m 52s
True Declination
0° 00' 00"
Sunlit
Object was in daylight at epoch
Visualization orbit readout
Latitude
Unknown
Longitude
Unknown
Altitude
Unknown
Speed
Unknown
Apparent Right ascension
Unknown
Apparent Declination
Unknown
Sunlit
N/A
Visualization observer readout
Local Sidereal Time
11:10:50
Azimuth
Unknown
Elevation
Unknown
Doppler factor
Unknown
Orbital elements
Apogee altitude
830.172 km
Perigee altitude
687.228 km
Semi-major axis
7,136.837 km
Eccentricity
0.01001
Inclination
98.5722°
RAAN
263.7184°
Arg. of periapsis
155.8932°
True anomaly
204.22498°
Mean anomaly
204.6991°
Eccentric anomaly
204.4615°
Mean motion
3.59985 °/min
Orbital period
100 mins
BSTAR
0.00023478
Loading maneuver chart data...
Computing Atmospheric mass density...
Loading historical data...
Loading historical data...
Loading historical data...
Loading historical data...
Loading historical data...
Loading historical data...
Loading historical data...

Documentation

Showing up to 5 results
|